Budapest Ferihegy, Hungary

3:30 PM CET on December 12, 2017 (GMT +0100)
Ferihegy

Weather History for LHBP - January, 2014

Change the Weather History Date:

Monday, January 13, 2014

  Actual Average Record
Temperature  
Mean Temperature 32 °F -  
Max Temperature 46 °F 37 °F 59 °F (2007)
Min Temperature 19 °F 23 °F -2 °F (2003)
Degree Days  
Heating Degree Days 32    
Moisture  
Dew Point 28 °F    
Average Humidity 84    
Maximum Humidity 100    
Minimum Humidity 61    
Precipitation  
Precipitation 0.00 in - - ()
Sea Level Pressure  
Sea Level Pressure 30.08 in    
Wind  
Wind Speed 3 mph ()    
Max Wind Speed 8 mph    
Max Gust Speed -    
Visibility 6.2 miles    
Events      
Averages and records for this station are not official NWS values.
T = Trace of Precipitation, MM = Missing Value Source: Averaged Metar Reports

Daily Weather History Graph

Daily Weather History Graph

Search for Another Location

Airport or City:

Trip Planner

Search our weather history database for the weather conditions in past years. The results will help you decide how hot, cold, wet, or windy it might be!

Date:

Astronomy

Jan. 13, 2014 Rise Set
Actual Time 7:27 AM CET 4:16 PM CET
Civil Twilight 6:52 AM CET 4:51 PM CET
Nautical Twilight 6:14 AM CET 5:29 PM CET
Astronomical Twilight 5:37 AM CET 6:06 PM CET
Moon 2:18 PM CET (1/13) 4:59 AM CET (1/13)
Length of Visible Light 9h 58m
Length of Day
8h 49m
Waxing Gibbous, 93% of the Moon is Illuminated
Jan 13
Waxing Gibbous
Jan 16
Full
Jan 24
Last Quarter
Jan 30
New
Feb 6
First Quarter

Hourly Weather History & Observations

Time (CET) Temp. Windchill Dew Point Humidity Pressure Visibility Wind Dir Wind Speed Gust Speed Precip Events Conditions
12:00 AM 28.4 °F - 26.6 °F 93% 30.18 in - Variable 1.2 mph - N/A   Clear
12:30 AM 26.6 °F - 24.8 °F 93% 30.15 in - Variable 1.2 mph - N/A   Clear
1:00 AM 23.0 °F - 23.0 °F 100% 30.15 in - Variable 2.3 mph - N/A   Clear
1:30 AM 23.0 °F 18.4 °F 23.0 °F 100% 30.15 in 6.2 mi Variable 3.5 mph - N/A   Scattered Clouds
2:00 AM 21.2 °F - 21.2 °F 100% 30.15 in 6.2 mi Variable 2.3 mph - N/A   Partly Cloudy
2:30 AM 23.0 °F 17.0 °F 23.0 °F 100% 30.15 in - SSE 4.6 mph - N/A   Clear
3:00 AM 23.0 °F - 23.0 °F 100% 30.15 in - Variable 2.3 mph - N/A   Clear
3:30 AM 21.2 °F 14.9 °F 21.2 °F 100% 30.15 in - ENE 4.6 mph - N/A   Clear
4:00 AM 21.2 °F 16.4 °F 21.2 °F 100% 30.12 in - Variable 3.5 mph - N/A   Clear
4:30 AM 21.2 °F - 21.2 °F 100% 30.12 in - Variable 1.2 mph - N/A   Clear
5:00 AM 19.4 °F - 19.4 °F 100% 30.12 in - Variable 2.3 mph - N/A   Clear
5:30 AM 19.4 °F - 19.4 °F 100% 30.12 in - Variable 1.2 mph - N/A   Clear
6:00 AM 21.2 °F - 19.4 °F 93% 30.12 in - Variable 2.3 mph - N/A   Clear
6:30 AM 21.2 °F 16.4 °F 19.4 °F 93% 30.12 in - Variable 3.5 mph - N/A   Clear
7:00 AM 21.2 °F 14.9 °F 19.4 °F 93% 30.12 in - ENE 4.6 mph - N/A   Clear
7:30 AM 21.2 °F 14.9 °F 17.6 °F 86% 30.12 in - East 4.6 mph - N/A   Clear
8:00 AM 24.8 °F 19.1 °F 21.2 °F 86% 30.12 in - ESE 4.6 mph - N/A   Clear
8:30 AM 24.8 °F 19.1 °F 23.0 °F 93% 30.12 in - ESE 4.6 mph - N/A   Clear
9:00 AM 28.4 °F 24.6 °F 28.4 °F 100% 30.12 in - Variable 3.5 mph - N/A   Clear
9:30 AM 32.0 °F - 30.2 °F 93% 30.12 in - Variable 2.3 mph - N/A   Clear
10:00 AM 32.0 °F 27.5 °F 30.2 °F 93% 30.12 in - ESE 4.6 mph - N/A   Clear
10:30 AM 35.6 °F 32.8 °F 32.0 °F 87% 30.09 in - Variable 3.5 mph - N/A   Clear
11:00 AM 39.2 °F 37.0 °F 32.0 °F 75% 30.09 in - Variable 3.5 mph - N/A   Clear
11:30 AM 41.0 °F 39.0 °F 32.0 °F 70% 30.09 in - Variable 3.5 mph - N/A   Clear
12:00 PM 41.0 °F 38.0 °F 30.2 °F 65% 30.06 in - SSW 4.6 mph - N/A   Clear
12:30 PM 42.8 °F 39.3 °F 30.2 °F 61% 30.06 in - SSW 5.8 mph - N/A   Clear
1:00 PM 44.6 °F 40.7 °F 32.0 °F 61% 30.04 in - SSW 6.9 mph - N/A   Clear
1:30 PM 46.4 °F 42.9 °F 33.8 °F 62% 30.04 in - South 6.9 mph - N/A   Clear
2:00 PM 44.6 °F 40.7 °F 33.8 °F 66% 30.04 in - SW 6.9 mph - N/A   Clear
2:30 PM 44.6 °F 42.2 °F 33.8 °F 66% 30.04 in - South 4.6 mph - N/A   Clear
3:00 PM 44.6 °F 42.2 °F 33.8 °F 66% 30.04 in - SE 4.6 mph - N/A   Clear
3:30 PM 44.6 °F 43.1 °F 35.6 °F 71% 30.04 in - Variable 3.5 mph - N/A   Clear
4:00 PM 44.6 °F - 35.6 °F 71% 30.04 in - Variable 2.3 mph - N/A   Clear
4:30 PM 41.0 °F 39.0 °F 35.6 °F 81% 30.04 in - Variable 3.5 mph - N/A   Clear
5:00 PM 33.8 °F 30.8 °F 30.2 °F 87% 30.04 in 6.2 mi Variable 3.5 mph - N/A   Scattered Clouds
5:30 PM 35.6 °F 32.8 °F 33.8 °F 93% 30.04 in 6.2 mi Variable 3.5 mph - N/A   Mostly Cloudy
6:00 PM 35.6 °F 31.7 °F 33.8 °F 93% 30.04 in 6.2 mi ENE 4.6 mph - N/A   Mostly Cloudy
6:30 PM 41.0 °F 37.1 °F 35.6 °F 81% 30.04 in 6.2 mi ENE 5.8 mph - N/A   Overcast
7:00 PM 42.8 °F 38.6 °F 33.8 °F 70% 30.04 in 6.2 mi East 6.9 mph - N/A   Overcast
7:30 PM 41.0 °F 37.1 °F 33.8 °F 76% 30.04 in 6.2 mi East 5.8 mph - N/A   Overcast
8:00 PM 41.0 °F 36.4 °F 33.8 °F 76% 30.04 in 6.2 mi East 6.9 mph - N/A   Overcast
8:30 PM 41.0 °F 35.8 °F 33.8 °F 76% 30.04 in 6.2 mi East 8.1 mph - N/A   Overcast
9:00 PM 41.0 °F 35.8 °F 32.0 °F 70% 30.01 in 6.2 mi East 8.1 mph - N/A   Overcast
9:30 PM 39.2 °F 34.2 °F 32.0 °F 75% 30.04 in 6.2 mi East 6.9 mph - N/A   Mostly Cloudy
10:00 PM 39.2 °F 34.2 °F 30.2 °F 70% 30.04 in 6.2 mi ENE 6.9 mph - N/A   Mostly Cloudy
10:30 PM 39.2 °F 37.0 °F 32.0 °F 75% 30.04 in 6.2 mi Variable 3.5 mph - N/A   Mostly Cloudy
11:00 PM 39.2 °F - 32.0 °F 75% 30.01 in 6.2 mi Variable 2.3 mph - N/A   Overcast
11:30 PM 39.2 °F 33.6 °F 32.0 °F 75% 30.01 in 6.2 mi East 8.1 mph - N/A   Overcast